Regional Weather Roundup
Issued by NWS

Home | Current Version | Previous Version | Graphics & Text | Print | Product List | Glossary On
Versions: 1 2 3 4 5 6 7 8 9 10 11 12 13 14 15 16 17 18 19 20 21 22 23 24 25 26 27 28 29 30 31 32 33 34 35 36 37 38 39 40 41 42 43 44 45 46 47 48 49 50
000
ASUS43 KMKX 241400
RWRWI

WISCONSIN REGIONAL WEATHER ROUNDUP
NATIONAL WEATHER SERVICE MILWAUKEE/SULLIVAN WI
900 AM CDT SAT SEP 24 2016

NOTE: "FAIR" INDICATES FEW OR NO CLOUDS BELOW 12,000 FEET WITH NO
SIGNIFICANT WEATHER AND/OR OBSTRUCTIONS TO VISIBILITY.

WIZ001-002-006>008-014>016-023>028-241500-
NORTHWEST WISCONSIN

CITY           SKY/WX    TMP DP  RH WIND       PRES   REMARKS
SUPERIOR ARPT  CLOUDY    57  54  89 NE5       30.17S
ASHLAND        CLOUDY    60  55  83 CALM      30.20F
HAYWARD        CLOUDY    58  54  86 SE8       30.19F
SIREN          CLOUDY    60  57  89 SE3       30.15S
CUMBERLAND     CLOUDY    55  55 100 E10       30.17S FOG
RICE LAKE      CLOUDY    59  56  89 E8        30.19S FOG
CHETEK         NOT AVBL
LADYSMITH      CLOUDY    59  55  86 SE10      30.22S
EAU CLAIRE     CLOUDY    61  57  88 SE7       30.17R
MENOMONIE      CLOUDY    63  58  86 E6        30.17S
NEW RICHMOND   CLOUDY    60  59  95 SE9       30.14S FOG
OSCEOLA        CLOUDY    61  61 100 E12       30.16S
$$

WIZ003>005-009-010-017-018-241500-
NORTH CENTRAL WISCONSIN

CITY           SKY/WX    TMP DP  RH WIND       PRES   REMARKS
MANITOWISH WTR NOT AVBL
ARBOR VITAE    CLOUDY    57  53  87 SE8       30.25S
WOODRUFF       CLOUDY    57  53  87 SE8       30.25S
RHINELANDER    CLOUDY    57  55  93 SE10      30.26F
EAGLE RIVER    CLOUDY    56  52  87 SE6       30.26F
LAND O LAKES   CLOUDY    55  52  87 SE8       30.28F
PHILLIPS       CLOUDY    55  53  92 SE8       30.22F
TOMAHAWK       CLOUDY    56  52  88 SE3       30.25S
MEDFORD        CLOUDY   N/A N/A N/A E7        30.23R FOG
MERRILL        CLOUDY    57  55  93 E6        30.25F
$$

WIZ029-030-035-036-043>047-241500-
CENTRAL WISCONSIN

CITY           SKY/WX    TMP DP  RH WIND       PRES   REMARKS
WAUSAU         CLOUDY    58  55  90 SE10      30.24R
MOSINEE        NOT AVBL
MARSHFIELD     CLOUDY    59  55  87 E10       30.22S
STEVENS POINT  CLOUDY    56  55  97 E5        30.25S
WAUPACA        CLOUDY    61  59  93 E6        30.25S
WAUTOMA        NOT AVBL
WISC RAPIDS    CLOUDY    61  58  90 E8        30.24S
CAMP DOUGLAS   CLOUDY    61  60  97 E9        30.20S
$$

WIZ011>013-019>022-031-037>040-048>050-241500-
NORTHEAST WISCONSIN

CITY           SKY/WX    TMP DP  RH WIND       PRES   REMARKS
ANTIGO         CLOUDY    56  55  95 CALM      30.28R
SHAWANO        PTSUNNY   61  56  84 E5        30.28R
OCONTO         NOT AVBL
STURGEON BAY   CLOUDY    61  52  72 E8        30.30R
GREEN BAY      CLOUDY    60  57  89 E7        30.27S
MANITOWOC      NOT AVBL
APPLETON       PTSUNNY   61  54  77 SE8       30.24S
CLINTONVILLE   NOT AVBL
OSHKOSH        CLOUDY    62  55  77 SE12      30.24S
$$

WIZ032>034-041-042-053>061-241500-
SOUTHWEST WISCONSIN

CITY           SKY/WX    TMP DP  RH WIND       PRES   REMARKS
LA CROSSE      CLOUDY    65  62  90 SE7       30.17R
SPARTA         CLOUDY    62  60  94 E5        30.19S
VIROQUA        CLOUDY    62  62 100 E9        30.18S
BOSCOBEL       CLOUDY    67  62  84 E3        30.18R
PRAIRIE DU CHI CLOUDY    66  62  89 E7        30.15S FOG
PLATTEVILLE    CLOUDY    64  64  97 E12       30.18R
$$

WIZ056-057-062-063-064-067-068-241500-
SOUTH CENTRAL WISCONSIN

CITY           SKY/WX    TMP DP  RH WIND       PRES   REMARKS
REEDSBURG      NOT AVBL
BARABOO/DELLS  CLOUDY    60  58  94 E5        30.21S FOG
LONE ROCK      NOT AVBL
MINERAL POINT  CLOUDY    64  63  94 E9        30.18F
MADISON        CLOUDY    61  59  93 E9        30.21S
MIDDLETON      CLOUDY    64  62  96 E8        30.21S
WATERTOWN      CLOUDY    62  59  90 E9        30.22S
MONROE         CLOUDY    63  59  88 E8        30.20R
JANESVILLE     CLOUDY    64  63  94 E8        30.20R
$$

WIZ051-052-058>065-066-070>072-241500-
SOUTHEAST WISCONSIN

CITY           SKY/WX    TMP DP  RH WIND       PRES   REMARKS
MILWAUKEE      CLOUDY    66  58  75 E14       30.23S
WAUKESHA       MOSUNNY   61  55  82 E10       30.24R
MILWAUKEE/TIMM PTSUNNY   64  54  68 E10G16    30.24S
RACINE         CLOUDY    65  58  78 E9        30.24R
BURLINGTON     CLOUDY    62  57  83 E9        30.22R
KENOSHA        CLOUDY    65  59  81 E12       30.23R
FOND DU LAC    CLOUDY    63  56  78 E6        30.24S
SHEBOYGAN      CLOUDY    62  54  74 E7        30.26R
WEST BEND      CLOUDY    61  55  82 E8        30.24S
JUNEAU         CLOUDY    60  56  86 E7        30.24R
$$

LSZ147-162-241500-
LAKE SUPERIOR

STATION/POSITION TIME  TEMP    WIND        PRES    WAVE
                       AIR SEA DIR/SP/G            HT/PER
                 (UTC) (F)     (DEG/KT/KT) (MB)    (FT/S)
W MID LAKE BUOY  1250   59 61  140/ 12/ 16 1023.4R   2/ 4
DEVILS ISLAND    1300   60     130/ 10/ 12 1023.2S
SAXON HARBOR     1300   60     170/  4/  9 1022.4S
$$

LMZ867-665-643>646-241500-
LAKE MICHIGAN

STATION/POSITION TIME  TEMP    WIND        PRES    WAVE
                       AIR SEA DIR/SP/G            HT/PER
                 (UTC) (F)     (DEG/KT/KT) (MB)    (FT/S)
CHAMBERS ISLAND  1300   60      90/  8/ 12 1024.7F
S GREEN BAY BUOY 1300   62 66  110/ 10/ 12 1024.5R
N MID LAKE BUOY  1250   60 68  140/ 10/ 12 1026.0R   2/ 4
NORTHPORT PIER   1300   61     120/  8/ 12 1025.7
SISTER BAY       1323   61     140/  7/  9   N/A
ALGOMA LAKESHORE 1217          150/ 11/ 14   N/A
KEWAUNEE LAKESHO 1300   61     110/ 10/ 13 1024.5R
SHEBOYGAN LAKESH 1300   62     110/ 12/ 13 1024.1R
PORT WASHINGTON  1340   60      90/  6/  7 1025.1R
ATWATER BUOY     1300   64 62  110/ 12/ 16 1023.7R
MILWAUKEE LAKESH 1310   64      80/ 11/ 12   N/A
S MID LAKE BUOY  1250   63 72   90/ 14/ 17 1023.1R   3/ 5
KENOSHA   LAKESH 1300   64      90/ 15/ 17 1022.7S
$$

TC  - TEMPERATURE IN CELSIUS
VSB - VISIBILITY IN STATUTE MILES
WCI - WIND CHILL INDEX
HX  - HEAT INDEX





USA.gov is the U.S. government's official web portal to all federal, state and local government web resources and services.